TimeEST,TemperatureF,Dew PointF,Humidity,Sea Level PressureIn,VisibilityMPH,Wind Direction,Wind SpeedMPH,Gust SpeedMPH,PrecipitationIn,Events,Conditions,WindDirDegrees,DateUTC
12:53 AM,39.0,33.1,79,30.12,10.0,Calm,Calm,-,N/A,,Clear,0,2012-11-25 05:53:00
1:53 AM,39.9,30.9,70,30.12,10.0,NNW,4.6,-,N/A,,Clear,330,2012-11-25 06:53:00
2:53 AM,37.0,28.9,73,30.12,10.0,Calm,Calm,-,N/A,,Clear,0,2012-11-25 07:53:00
3:53 AM,37.9,28.0,68,30.13,10.0,NNW,3.5,-,N/A,,Clear,330,2012-11-25 08:53:00
4:53 AM,35.1,28.0,76,30.13,10.0,NNW,4.6,-,N/A,,Clear,340,2012-11-25 09:53:00
5:53 AM,34.0,28.0,79,30.15,10.0,Calm,Calm,-,N/A,,Clear,0,2012-11-25 10:53:00
6:53 AM,32.0,27.0,82,30.15,10.0,Calm,Calm,-,N/A,,Clear,0,2012-11-25 11:53:00
7:53 AM,37.0,28.9,73,30.18,10.0,WNW,3.5,-,N/A,,Clear,300,2012-11-25 12:53:00
8:53 AM,46.9,28.0,48,30.20,10.0,North,3.5,-,N/A,,Clear,360,2012-11-25 13:53:00
9:53 AM,53.1,28.0,38,30.22,10.0,NNE,3.5,-,N/A,,Clear,20,2012-11-25 14:53:00
10:53 AM,59.0,26.1,28,30.21,10.0,Calm,Calm,-,N/A,,Clear,0,2012-11-25 15:53:00
11:53 AM,63.0,25.0,24,30.19,10.0,North,4.6,-,N/A,,Clear,360,2012-11-25 16:53:00
12:53 PM,64.9,19.9,18,30.16,10.0,NNW,4.6,-,N/A,,Clear,340,2012-11-25 17:53:00
1:53 PM,66.0,19.0,17,30.13,10.0,NW,6.9,-,N/A,,Clear,320,2012-11-25 18:53:00
2:53 PM,66.9,19.0,16,30.12,10.0,WNW,5.8,-,N/A,,Clear,300,2012-11-25 19:53:00
3:53 PM,66.0,18.0,16,30.12,10.0,Calm,Calm,-,N/A,,Clear,0,2012-11-25 20:53:00
4:53 PM,64.0,23.0,21,30.12,10.0,NW,3.5,-,N/A,,Clear,310,2012-11-25 21:53:00
5:53 PM,52.0,33.1,49,30.14,10.0,Calm,Calm,-,N/A,,Clear,0,2012-11-25 22:53:00
6:53 PM,46.9,34.0,61,30.15,10.0,Calm,Calm,-,N/A,,Clear,0,2012-11-25 23:53:00
7:53 PM,43.0,34.0,71,30.17,10.0,Calm,Calm,-,N/A,,Clear,0,2012-11-26 00:53:00
8:53 PM,41.0,34.0,76,30.18,10.0,Calm,Calm,-,N/A,,Clear,0,2012-11-26 01:53:00
9:53 PM,39.0,32.0,76,30.18,10.0,Calm,Calm,-,N/A,,Clear,0,2012-11-26 02:53:00
10:53 PM,36.0,30.9,82,30.19,10.0,Calm,Calm,-,N/A,,Clear,0,2012-11-26 03:53:00
11:53 PM,37.0,30.9,79,30.19,10.0,Calm,Calm,-,N/A,,Clear,0,2012-11-26 04:53:00